This is the latest recevied weather packets stored in our database for station/object N5TSS. If no packets are shown the sender has not sent any weather packets the latest 10 day(s).
| Time | Temp. | Humidity | Pressure | Rain* | Wind** | Luminosity | Snow |
|---|---|---|---|---|---|---|---|
| 1777912707 | 25° C | 57% | 1016.3 hPa | 0 mm | - | - | - |
| 1777912403 | 24.44° C | 58% | 1016.3 hPa | 0 mm | - | - | - |
| 1777912099 | 24.44° C | 59% | 1016.6 hPa | 0 mm | - | - | - |
| 1777911795 | 24.44° C | 59% | 1016.6 hPa | 0 mm | - | - | - |
| 1777911492 | 23.89° C | 59% | 1016.6 hPa | 0 mm | - | - | - |
| 1777911189 | 23.89° C | 59% | 1016.9 hPa | 0 mm | - | - | - |
| 1777910886 | 23.89° C | 60% | 1016.6 hPa | 0 mm | - | - | - |
| 1777910583 | 23.89° C | 59% | 1016.9 hPa | 0 mm | - | - | - |
| 1777910280 | 23.33° C | 60% | 1016.9 hPa | 0 mm | - | - | - |
| 1777909977 | 23.89° C | 59% | 1016.9 hPa | 0 mm | - | - | - |
| 1777909673 | 23.89° C | 60% | 1016.9 hPa | 0 mm | - | - | - |
| 1777909371 | 23.33° C | 62% | 1016.9 hPa | 0 mm | - | - | - |
| 1777909069 | 23.33° C | 61% | 1016.9 hPa | 0 mm | - | - | - |
| 1777908766 | 23.33° C | 62% | 1016.9 hPa | 0 mm | - | - | - |
| 1777908463 | 23.33° C | 62% | 1016.9 hPa | 0 mm | - | - | - |
| 1777908160 | 22.78° C | 62% | 1017.3 hPa | 0 mm | - | - | - |
| 1777907856 | 22.78° C | 63% | 1017.3 hPa | 0 mm | - | - | - |
| 1777907552 | 22.78° C | 63% | 1017.3 hPa | 0 mm | - | - | - |
| 1777907248 | 22.22° C | 63% | 1017.3 hPa | 0 mm | - | - | - |
| 1777906945 | 22.22° C | 63% | 1016.9 hPa | 0 mm | - | - | - |
| 1777906643 | 21.67° C | 63% | 1017.3 hPa | 0 mm | - | - | - |
| 1777906338 | 22.22° C | 64% | 1017.3 hPa | 0 mm | - | - | - |
| 1777906035 | 21.67° C | 64% | 1017.3 hPa | 0 mm | - | - | - |
| 1777905731 | 21.67° C | 63% | 1017.3 hPa | 0 mm | - | - | - |
| 1777905429 | 21.67° C | 63% | 1017.3 hPa | 0 mm | - | - | - |
* Rain latest hour (hover to see other rain measurements)
** Current wind speed in m/s (hover to see current wind gust speed)